Regional Weather Roundup
Issued by NWS Grand Forks, ND

Home | Current Version | Previous Version | Text Only | Print | Product List | Glossary On
Versions: 1 2 3 4 5 6 7 8 9 10 11 12 13 14 15 16 17 18 19 20 21 22 23 24 25 26 27 28 29 30 31 32 33 34 35 36 37 38 39 40 41 42 43 44 45 46 47 48 49 50
000
ASUS43 KFGF 270331
RWRFGF
PRAIRIE TO PINES  WEATHER ROUNDUP
NATIONAL WEATHER SERVICE EASTERN NORTH DAKOTA/GRAND FORKS ND
1000 PM CDT TUE JUL 26 2016

 **SATELLITE DATA USED TO AUGMENT SKY COVER AT AUTOMATED STATIONS**
 *****  WEATHER ACROSS EASTERN NORTH DAKOTA  *****

CITY           SKY/WX    TMP DP  RH WIND       PRES   REMARKS
GRAND FORKS    CLOUDY    73  63  70 N9        29.99R
GRAND FRKS AFB CLOUDY    71  64  77 N8        30.00R
GRAND FRKS NWS   N/A     72 N/A N/A N7          N/A
DEVILS LAKE    CLOUDY    67  65  93 CALM      30.05S
FARGO          LGT RAIN  69  66  90 N10       29.97F
WAHPETON ARPT  CLOUDY    70  63  78 NW7       29.98R
$$

 ***** WEATHER ACROSS CENTRAL AND WESTERN NORTH DAKOTA  *****

CITY           SKY/WX    TMP DP  RH WIND       PRES   REMARKS
BISMARCK       PTCLDY    71  61  70 NE7       30.02S
MINOT          CLOUDY    70  58  65 NW6       30.05R
JAMESTOWN      LGT RAIN  65  63  93 N15G25    30.03R
MINOT AFB      CLOUDY    71  58  64 N5        30.05R
GARRISON         N/A     68  64  87 NE3       30.06R
WILLISTON      PTCLDY    73  56  54 NE7       30.08R
DICKINSON      CLEAR     63  56  78 E3        30.06R
HETTINGER      PTCLDY    70  60  70 NE13      30.08R
$$

 *****  OTHER AIRPORT OBSERVATIONS IN OUR AREA  *****

CITY           SKY/WX    TMP DP  RH WIND       PRES   REMARKS
WALHALLA       FAIR      66  64  94 N7        30.05R
GRAFTON AIRPOR FAIR      70  64  83 N6        30.02R
VALLEY CITY AR CLOUDY    66  66 100 N13       30.04R
CANDO          FAIR      66  64  94 CALM      30.09R
CAVALIER APRT  FAIR      68  63  83 N8        30.02S
GWINNER        FAIR      68  66  94 N7        29.98R
SHEYENNE NWR     N/A     72  67  83 N5        29.95S
ROLLA          FAIR      64  63  94 NE8       30.10R
 ***** THE ABOVE OBSERVATIONS ARE NON NWS ARE NOT QUALITY
       CONTROLLED AND MAY MIS-REPORT RAIN FOR SNOW...
$$

  *****  WEATHER ACROSS NORTHERN MINNESOTA  *****

CITY           SKY/WX    TMP DP  RH WIND       PRES   REMARKS
FLAG ISLAND    PTCLDY    73  55  53 N14       30.01R
WARROAD        CLOUDY    70  57  64 N8        30.02R
ROSEAU         CLOUDY    66  61  82 NE6       30.02R
HALLOCK        PTCLDY    70  61  73 NE7       30.01R
THF RVR FALLS  CLOUDY    71  65  81 N7        30.00R
BAUDETTE       CLOUDY    71  58  63 N6        30.01R
WASKISH        CLOUDY    70  63  78 N5        29.99S
CROOKSTON      CLOUDY    72  66  83 N6        30.00R
STEPHEN NDAWN    N/A     70  63  78 N5          N/A
GREENBUSH NDAW   N/A     68  61  77 N5          N/A
$$
  *****  WEATHER ACROSS CENTRAL AND WEST MINNESOTA  *****

CITY           SKY/WX    TMP DP  RH WIND       PRES   REMARKS
FOSSTON        CLOUDY    70  64  83 N7        30.00R
BEMIDJI        CLOUDY    72  63  73 N6        29.99R
PARK RAPIDS    CLOUDY    73  69  87 NW3       29.97R
ELBOW LAKE     FAIR      70  67  89 CALM      29.99R
WADENA         PTCLDY    66  63  88 CALM      29.98R
DETROIT LAKES  TSTM      64  61  88 NE17G26     N/A  VSB 1/2
MOORHEAD       MOCLDY    70  64  83 NW18      29.98R THUNDER
FERGUS FALLS   CLOUDY    70  68  94 NW6       29.98R
MORRIS MN      MOCLDY    73  68  83 CALM      29.98S
STAPLES        CLOUDY    64  61  88 CALM      29.98S
$$
  *****  WEATHER ELSEWHERE ACROSS MINNESOTA  *****

CITY           SKY/WX    TMP DP  RH WIND       PRES   REMARKS
DULUTH         CLOUDY    74  68  81 W8        29.99R
INTRNTL FALLS  CLOUDY    67  58  72 CALM      29.99R
ELY            CLOUDY    66  61  82 CALM      29.99S
CLOQUET        CLOUDY    70  59  68 W3        29.98F
WHEATON        CLOUDY    72  70  94 N3        29.98S
BRAINERD       CLOUDY    65  64  97 CALM      29.98R
HIBBING        PTCLDY    67  62  84 N5        29.98R
ALEXANDRIA     CLOUDY    70  66  87 W3        29.99F
SAINT CLOUD    CLOUDY    70  65  84 CALM      29.98R
MINNEAPOLIS    MOCLDY    83  68  60 SW8       29.98R
$$

  *****  WEATHER ACROSS SOUTH DAKOTA  *****

CITY           SKY/WX    TMP DP  RH WIND       PRES   REMARKS
SIOUX FALLS    CLOUDY    78  65  63 S12       29.98R
BROOKINGS      CLOUDY    74  69  85 SE9       29.98R
WATERTOWN      CLOUDY    72  63  73 E9        29.99R
HURON          CLOUDY    78  65  63 SE7       29.91R
SISSETON         N/A     68  67  96 CALM      29.96S
ABERDEEN       MOCLDY    72  68  87 NE7       29.96R
MITCHELL       CLOUDY    82  64  54 S28G39    29.86F
PIERRE         CLOUDY    71  61  70 S12       29.94R
MOBRIDGE       MOCLDY    73  64  73 CALM      29.94S
RAPID CITY     MOCLDY    74  55  51 N10       30.02R
$$

  *****  SOME WEATHER IN NEARBY STATES *****

CITY           SKY/WX    TMP DP  RH WIND       PRES   REMARKS
GLASGOW MT     CLOUDY    71  56  58 NE20      30.03R
GREAT FALLS MT MOCLDY    65  54  67 W7        30.10R
CHEYENNE WY    MOCLDY    73  45  36 NE9G18    30.21R
SCOTTSBLUFF NE CLOUDY    74  57  55 NE20G36   30.08R
OMAHA NE       PTCLDY    77  68  73 E7        30.01R
DES MOINES IA  PTCLDY    77  65  66 S3        30.02R
DAVENPORT IA   CLEAR     70  67  90 CALM      30.02S
CHICAGO IL     PTCLDY    77  62  59 CALM      30.01R
EAU CLAIRE WI  CLOUDY    77  68  73 SW6       29.97R
LA CROSSE WI   CLEAR     79  69  71 S6        29.99R
$$

  *****  SOME NATIONAL WEATHER *****

CITY           SKY/WX    TMP DP  RH WIND       PRES   REMARKS
LA GUARDIA NY  MOCLDY    84  62  47 N8        29.91R
RALEIGH NC     TSTM      76  71  85 W13       30.00R FOG
ATLANTA GA     PTCLDY    83  72  69 SW8       30.05R
NEW ORLEANS LA CLOUDY    80  73  79 S12       29.96R
OKLAHOMA CITY  MOCLDY    79  72  79 SE3       29.95S
ALBUQUERQUE NM MOCLDY    81  54  39 SE23G30   30.16R
SALT LAKE CITY PTCLDY    94  23   8 E3        29.97S
LOS ANGELES CA PTCLDY    71  64  78 W12       29.85R
BOISE ID       CLEAR     93  38  14 NW6       29.91S
SEATTLE WA     PTCLDY    77  57  50 N5        30.10S
$$

*** WEATHER ACROSS MANITOBA...SASKATCHEWAN AND ONTARIO ***
                ***ONTARIO***

CITY           SKY/WX    TMP DP  RH WIND       PRES   REMARKS
GERALDTON      PTCLDY    68  52  56 N8        29.92R
THUNDER BAY    PTCLDY    66  55  68 SW6       29.93R
SIOUX LOOKOUT  MOCLDY    63  54  72 N5        30.00R
TORONTO        CLEAR     75  59  57 NE3       29.95F
BIG TROUT LK   NOT AVBL
PICKLE LAKE    NOT AVBL
DRYDEN         CLEAR     68  52  56 N6        30.00R
KENORA         MOCLDY    68  50  52 N7        30.02R
$$
                *** MANITOBA***

CITY           SKY/WX    TMP DP  RH WIND       PRES   REMARKS
BRANDON        MOCLDY    63  59  88 NE7       30.09R
DAUPHIN        CLEAR     61  55  82 NE3       30.10R
ISLAND LAKE    MOCLDY    61  55  82 NE5       30.11R
PILOT MOUND      N/A     64  57  77 N8          N/A
THE PAS        MOCLDY    59  48  67 SE3       30.11R
THOMPSON       PTCLDY    54  50  87 N3        30.13S
WINNIPEG       PTCLDY    64  59  82 NE8       30.05S
LYNN LAKE      CLEAR     64  41  42 MISG      30.11S
CHURCHILL      PTCLDY    50  48  93 N6        30.12S
GILLAM         MOCLDY    57  52  82 N7        30.12S
$$
                ***SASKATCHEWAN***

CITY           SKY/WX    TMP DP  RH WIND       PRES   REMARKS
ESTEVAN        PTCLDY    64  59  82 E6        30.09R
KINDERSLEY     MOCLDY    63  55  77 E7        30.10R
LLOYDMINSTER   MOCLDY    68  57  68 S9        30.06F
PRINCE ALBERT  PTCLDY    64  57  77 SE5       30.10R
REGINA         PTCLDY    68  52  56 NE8       30.11
YORKTON        CLEAR     64  57  77 CALM      30.11R
N. BATTLEFORD  CLEAR     63  54  72 E7        30.10F
LA RONGE       PTCLDY    66  50  55 S3        30.09R
SASKATOON      PTCLDY    68  50  52 SE9       30.11F
SWIFT CURRENT  CLEAR     64  57  77 E9        30.11R
$$
NOTE: THESE ARE AUTOMATED STATIONS WITH LIMITED QUALITY CONTROL
      "FAIR" INDICATES FEW OR NO CLOUDS BELOW 12,000 FEET WITH NO
      SIGNIFICANT WEATHER AND/OR OBSTRUCTIONS TO VISIBILITY.
      SKY/WX - SKY CONDITION AND SIGNIFICANT WEATHER.
      TMP - AIR TEMPERATURE.    DP   - DEWPOINT TEMPERATURE.
      RH  - RELATIVE HUMIDITY.  PRES - PRESSURE.
      HX  - HEAT INDEX.         WCI  - WIND CHILL INDEX.
$



USA.gov is the U.S. government's official web portal to all federal, state and local government web resources and services.